When you browse on this site, cookies collect data to enhance your experience and personalize the content and advertising you see.
Visit our Privacy Policy to learn more. By continuing to use the site, you agree to this use of cookies and data.
  • In Czech Republic
  • List of Countries
  • For 7 days
  • Water Temperature
  • Weather Map
  • Weather Widgets
  • user-avatar
    Login

    Hourly Weather Kiel

    Today, 14 December, Saturday

    Time Temperature Precipitation Wind Pressure Humidity
    00:00 0°C° 0.1 mm 3 mps 735 mmHg 96%
    01:00 +1°C° 0.1 mm 3 mps 734 mmHg 97%
    02:00 +1°C° 0.4 mm 3 mps 734 mmHg 97%
    03:00 +1°C° 0.4 mm 4 mps 734 mmHg 97%
    04:00 +1°C° 0.4 mm 4 mps 733 mmHg 97%
    05:00 +1°C° 0.1 mm 5 mps 733 mmHg 95%
    06:00 +2°C° 0.1 mm 5 mps 733 mmHg 94%
    07:00 +2°C° 0.1 mm 6 mps 733 mmHg 92%
    08:00 +2°C° 0.2 mm 6 mps 733 mmHg 93%
    09:00 +2°C° 0.2 mm 6 mps 733 mmHg 93%
    10:00 +2°C° 0.2 mm 7 mps 734 mmHg 93%
    11:00 +3°C° 0.9 mm 7 mps 734 mmHg 89%
    12:00 +3°C° 0.9 mm 7 mps 734 mmHg 84%
    13:00 +4°C° 0.9 mm 8 mps 735 mmHg 80%
    14:00 +4°C° 0.2 mm 8 mps 735 mmHg 78%
    15:00 +2°C° 0.2 mm 8 mps 736 mmHg 77%
    16:00 +2°C° 0.2 mm 8 mps 737 mmHg 75%
    17:00 +2°C° 0.2 mm 8 mps 737 mmHg 76%
    18:00 +2°C° 0.2 mm 9 mps 738 mmHg 77%
    19:00 +2°C° 0.2 mm 9 mps 739 mmHg 78%
    20:00 +2°C° 0.1 mm 9 mps 740 mmHg 78%
    21:00 +1°C° 0.1 mm 8 mps 740 mmHg 78%
    22:00 +1°C° 0.1 mm 8 mps 741 mmHg 78%
    23:00 +1°C° 0.2 mm 8 mps 742 mmHg 79%

    Tomorrow, 15 December, Sunday

    Time Temperature Precipitation Wind Pressure Humidity
    00:00 +2°C° 0.2 mm 7 mps 743 mmHg 80%
    01:00 +2°C° 0.2 mm 7 mps 743 mmHg 82%
    02:00 +2°C° 0 mm 7 mps 743 mmHg 82%
    03:00 +1°C° 0 mm 6 mps 743 mmHg 82%
    04:00 -1°C° 0 mm 6 mps 743 mmHg 82%
    05:00 0°C° 0 mm 7 mps 742 mmHg 82%
    06:00 0°C° 0 mm 8 mps 741 mmHg 82%
    07:00 0°C° 0 mm 8 mps 740 mmHg 83%
    08:00 +1°C° 1.4 mm 8 mps 740 mmHg 86%
    09:00 +2°C° 1.4 mm 8 mps 740 mmHg 89%
    10:00 +4°C° 1.4 mm 8 mps 739 mmHg 92%
    11:00 +3°C° 0.5 mm 9 mps 740 mmHg 84%
    12:00 +3°C° 0.5 mm 11 mps 741 mmHg 76%
    13:00 +3°C° 0.5 mm 12 mps 742 mmHg 67%
    14:00 +3°C° 0.1 mm 11 mps 743 mmHg 69%
    15:00 +3°C° 0.1 mm 10 mps 745 mmHg 71%
    16:00 +2°C° 0.1 mm 8 mps 746 mmHg 73%
    17:00 +2°C° 0 mm 8 mps 747 mmHg 75%
    18:00 +2°C° 0 mm 7 mps 748 mmHg 77%
    19:00 +2°C° 0 mm 7 mps 749 mmHg 79%
    20:00 +2°C° 0 mm 7 mps 750 mmHg 80%
    21:00 +2°C° 0 mm 7 mps 750 mmHg 82%
    22:00 +2°C° 0 mm 7 mps 751 mmHg 83%
    23:00 +2°C° 0 mm 7 mps 751 mmHg 84%

    Day after tomorrow, 16 December, Monday

    Time Temperature Precipitation Wind Pressure Humidity
    00:00 +1°C° 0 mm 6 mps 752 mmHg 86%
    01:00 +1°C° 0 mm 6 mps 752 mmHg 87%
    02:00 +1°C° 0 mm 6 mps 752 mmHg 88%
    03:00 +1°C° 0 mm 6 mps 752 mmHg 89%
    04:00 +1°C° 0 mm 5 mps 752 mmHg 90%
    05:00 +1°C° 0 mm 5 mps 752 mmHg 90%
    06:00 +1°C° 0 mm 5 mps 752 mmHg 91%
    07:00 +1°C° 0 mm 5 mps 752 mmHg 92%
    08:00 +1°C° 0 mm 5 mps 752 mmHg 91%
    09:00 +2°C° 0 mm 5 mps 752 mmHg 90%
    10:00 +2°C° 0 mm 6 mps 753 mmHg 89%
    11:00 +3°C° 0 mm 5 mps 752 mmHg 87%
    12:00 +5°C° 0 mm 5 mps 752 mmHg 85%
    13:00 +6°C° 0 mm 5 mps 752 mmHg 84%
    14:00 +5°C° 0 mm 5 mps 752 mmHg 87%
    15:00 +5°C° 0 mm 4 mps 752 mmHg 90%
    16:00 +5°C° 0 mm 4 mps 752 mmHg 92%
    17:00 +4°C° 0 mm 4 mps 752 mmHg 93%
    18:00 +4°C° 0 mm 3 mps 752 mmHg 94%
    19:00 +4°C° 0 mm 3 mps 752 mmHg 95%
    20:00 +4°C° 0.1 mm 3 mps 752 mmHg 95%
    21:00 +4°C° 0.1 mm 3 mps 752 mmHg 96%
    22:00 +6°C° 0.1 mm 2 mps 751 mmHg 96%
    23:00 +6°C° 0.4 mm 2 mps 751 mmHg 97%

    17 December, Tuesday

    Time Temperature Precipitation Wind Pressure Humidity
    00:00 +6°C° 0.4 mm 2 mps 751 mmHg 97%
    01:00 +6°C° 0.4 mm 2 mps 750 mmHg 98%
    02:00 +5°C° 0.1 mm 3 mps 750 mmHg 95%
    03:00 +5°C° 0.1 mm 3 mps 749 mmHg 93%
    04:00 +6°C° 0.1 mm 4 mps 749 mmHg 91%
    05:00 +6°C° 0.2 mm 4 mps 749 mmHg 88%
    06:00 +6°C° 0.2 mm 4 mps 749 mmHg 84%
    07:00 +6°C° 0.2 mm 4 mps 748 mmHg 81%
    08:00 +6°C° 0 mm 5 mps 749 mmHg 81%
    09:00 +6°C° 0 mm 5 mps 749 mmHg 81%
    10:00 +6°C° 0 mm 5 mps 750 mmHg 81%
    11:00 +7°C° 0 mm 5 mps 750 mmHg 82%
    12:00 +7°C° 0 mm 5 mps 750 mmHg 82%
    13:00 +8°C° 0 mm 4 mps 750 mmHg 82%
    14:00 +8°C° 0 mm 4 mps 750 mmHg 85%
    15:00 +8°C° 0 mm 3 mps 750 mmHg 88%
    16:00 +8°C° 0 mm 3 mps 751 mmHg 92%
    17:00 +8°C° 0.2 mm 3 mps 751 mmHg 91%
    18:00 +8°C° 0.2 mm 3 mps 751 mmHg 91%
    19:00 +7°C° 0.2 mm 4 mps 751 mmHg 91%
    20:00 +7°C° 0.1 mm 4 mps 751 mmHg 92%
    21:00 +8°C° 0.1 mm 3 mps 751 mmHg 93%
    22:00 +8°C° 0.1 mm 3 mps 752 mmHg 95%
    23:00 +8°C° 0.1 mm 3 mps 752 mmHg 94%

    18 December, Wednesday

    Time Temperature Precipitation Wind Pressure Humidity
    00:00 +7°C° 0.1 mm 4 mps 752 mmHg 92%
    01:00 +7°C° 0.1 mm 4 mps 752 mmHg 91%
    02:00 +7°C° 0.5 mm 4 mps 752 mmHg 92%
    03:00 +7°C° 0.5 mm 5 mps 752 mmHg 93%
    04:00 +7°C° 0.5 mm 5 mps 752 mmHg 94%
    05:00 +7°C° 0.5 mm 5 mps 752 mmHg 93%
    06:00 +5°C° 0.5 mm 6 mps 753 mmHg 92%
    07:00 +4°C° 0.5 mm 6 mps 754 mmHg 90%
    08:00 +5°C° 0 mm 5 mps 754 mmHg 90%
    09:00 +5°C° 0 mm 4 mps 755 mmHg 90%
    10:00 +5°C° 0 mm 3 mps 756 mmHg 89%
    11:00 +5°C° 0 mm 3 mps 757 mmHg 87%
    12:00 +7°C° 0 mm 3 mps 757 mmHg 84%
    13:00 +6°C° 0 mm 4 mps 757 mmHg 82%
    14:00 +5°C° 0 mm 3 mps 758 mmHg 85%
    15:00 +5°C° 0 mm 3 mps 758 mmHg 88%
    16:00 +5°C° 0 mm 2 mps 758 mmHg 91%
    17:00 +4°C° 0 mm 2 mps 759 mmHg 92%
    18:00 +4°C° 0 mm 2 mps 759 mmHg 92%
    19:00 +4°C° 0 mm 2 mps 759 mmHg 93%
    20:00 +3°C° 0 mm 2 mps 759 mmHg 93%
    21:00 +3°C° 0 mm 2 mps 760 mmHg 93%
    22:00 +3°C° 0 mm 2 mps 760 mmHg 93%
    23:00 +4°C° 0 mm 1 mps 760 mmHg 93%

    19 December, Thursday

    Time Temperature Precipitation Wind Pressure Humidity
    00:00 +3°C° 0 mm 1 mps 760 mmHg 93%
    01:00 +3°C° 0 mm 1 mps 760 mmHg 93%
    02:00 +3°C° 0 mm 1 mps 759 mmHg 92%
    03:00 +3°C° 0 mm 1 mps 759 mmHg 92%
    04:00 +3°C° 0 mm 1 mps 759 mmHg 92%
    05:00 +1°C° 0 mm 2 mps 759 mmHg 92%
    06:00 +1°C° 0 mm 2 mps 759 mmHg 92%
    07:00 0°C° 0 mm 3 mps 758 mmHg 93%
    08:00 0°C° 0 mm 3 mps 758 mmHg 93%
    09:00 +1°C° 0 mm 3 mps 758 mmHg 93%
    10:00 0°C° 0 mm 4 mps 758 mmHg 93%
    11:00 +1°C° 0 mm 4 mps 758 mmHg 91%
    12:00 +2°C° 0 mm 5 mps 757 mmHg 88%
    13:00 +3°C° 0 mm 6 mps 757 mmHg 85%
    14:00 +2°C° 0 mm 6 mps 757 mmHg 87%
    15:00 +2°C° 0 mm 6 mps 756 mmHg 90%
    16:00 +1°C° 0 mm 6 mps 756 mmHg 92%
    17:00 +1°C° 0 mm 6 mps 756 mmHg 92%
    18:00 +1°C° 0 mm 6 mps 755 mmHg 92%
    19:00 0°C° 0 mm 7 mps 755 mmHg 92%
    20:00 0°C° 0 mm 7 mps 755 mmHg 92%
    21:00 0°C° 0 mm 7 mps 755 mmHg 92%
    22:00 0°C° 0 mm 7 mps 754 mmHg 92%
    23:00 0°C° 0 mm 7 mps 754 mmHg 92%
    Show more